Le nostre stazioni meteo in Italia

Pubblicità
Il mio iltempo24.it
Cagliari/Elmas, Italia (16560): Temperatura & dewpoint: 17.07.2019 06:00:00 - 23.07.2019 06:00:00 (CEST)Cagliari/Elmas, Italia (16560): velocità del vento: 17.07.2019 06:00:00 - 23.07.2019 06:00:00 (CEST)Cagliari/Elmas, Italia (16560): direzione del vento: 17.07.2019 06:00:00 - 23.07.2019 06:00:00 (CEST)Cagliari/Elmas, Italia (16560): reduced air pressure: 17.07.2019 06:00:00 - 23.07.2019 06:00:00 (CEST)Cagliari/Elmas, Italia (16560): visibility: 17.07.2019 06:00:00 - 23.07.2019 06:00:00 (CEST)Cagliari/Elmas, Italia (16560): precipitazioni: 17.07.2019 06:00:00 - 23.07.2019 06:00:00 (CEST)
Data & Tempo tt [°C] td [°C] ff [km/h] ff [kn] dd ppp [hPa] vv [km] rr [mm]
23.07.2019 06:00:00 21,0 18,0 11 6 NNO - 10 -
23.07.2019 05:00:00 21,2 18,4 9 5 NNO 1018,2 10 0,0
23.07.2019 04:00:00 22,0 19,0 11 6 NNO - 10 -
23.07.2019 03:00:00 23,0 20,0 11 6 NO - 10 -
23.07.2019 02:00:00 23,7 19,8 9 5 NO 1019,3 10 -
23.07.2019 01:00:00 24,0 19,0 11 6 NNO - 10 -
23.07.2019 00:00:00 25,0 18,0 11 6 NO - 10 -
22.07.2019 23:00:00 25,5 15,9 8 4 NO 1019,9 10 0,0
22.07.2019 22:00:00 27,0 18,0 4 2 - - 10 -
22.07.2019 21:00:00 27,0 19,0 9 5 E - 10 -
22.07.2019 20:00:00 28,4 18,8 13 7 ESE 1019,3 - -
22.07.2019 19:00:00 - - - - - - - -
22.07.2019 18:00:00 - - - - - - - -
22.07.2019 17:00:00 29,9 19,8 18 10 SE 1020,0 - 0,0
22.07.2019 16:00:00 - - - - - - - -
22.07.2019 15:00:00 - - - - - - - -
22.07.2019 14:00:00 31,9 14,6 15 8 S 1020,9 10 -
22.07.2019 13:00:00 32,0 14,0 15 8 SE - 10 -
22.07.2019 12:00:00 30,0 14,0 8 4 SSO - 10 -
22.07.2019 11:00:00 30,0 11,4 8 4 SSO 1021,6 10 0,0
22.07.2019 10:00:00 27,0 17,0 5 3 ONO - 10 -
22.07.2019 09:00:00 24,0 18,0 8 4 NNO - 10 -
22.07.2019 08:00:00 21,7 17,9 5 3 NNO 1021,5 10 -
22.07.2019 07:00:00 19,0 18,0 9 5 NNO - 10 -
22.07.2019 06:00:00 - - - - - - - -
22.07.2019 05:00:00 20,3 18,1 8 4 NNO 1021,1 30 0,0
22.07.2019 04:00:00 21,0 19,0 8 4 NNO - 10 -
22.07.2019 03:00:00 - - - - - - - -
22.07.2019 02:00:00 22,5 17,3 4 2 - 1021,6 10 -
22.07.2019 01:00:00 24,0 22,0 5 3 SSE - 10 -
22.07.2019 00:00:00 25,0 22,0 8 4 S - 10 -
21.07.2019 23:00:00 24,9 22,5 11 6 S 1021,5 10 0,0
21.07.2019 22:00:00 25,0 23,0 11 6 S - 10 -
21.07.2019 21:00:00 25,0 23,0 13 7 S - 10 -
21.07.2019 20:00:00 26,1 22,4 13 7 S 1020,2 10 -
21.07.2019 19:00:00 27,0 22,0 16 9 SSE - 10 -
21.07.2019 18:00:00 28,0 21,0 21 11 SSE - 10 -
21.07.2019 17:00:00 28,7 21,7 21 11 S 1020,2 10 0,0
21.07.2019 16:00:00 28,0 22,0 21 11 S - 10 -
21.07.2019 15:00:00 29,0 21,0 21 11 S - 10 -
21.07.2019 14:00:00 28,1 21,3 21 11 S 1020,8 10 -
21.07.2019 13:00:00 29,0 21,0 21 11 S - 10 -
21.07.2019 12:00:00 28,0 21,0 18 10 S - 10 -
21.07.2019 11:00:00 28,4 18,3 16 9 S 1020,3 10 0,0
21.07.2019 10:00:00 27,0 19,0 8 4 OSO - 10 -
21.07.2019 09:00:00 26,0 19,0 5 3 N - 10 -
21.07.2019 08:00:00 23,8 16,9 5 3 N 1020,3 10 -
21.07.2019 07:00:00 21,0 16,0 4 2 - - 10 -
21.07.2019 06:00:00 20,0 16,0 4 2 - - 10 -
21.07.2019 05:00:00 21,4 17,1 4 2 NE 1019,3 10 0,0
21.07.2019 04:00:00 21,0 17,0 5 3 NE - 10 -
21.07.2019 03:00:00 22,0 19,0 5 3 N - 10 -
21.07.2019 02:00:00 24,2 21,8 11 6 SSE 1019,6 10 -
21.07.2019 01:00:00 25,0 20,0 11 6 S - 10 -
21.07.2019 00:00:00 25,0 21,0 9 5 S - 10 -
20.07.2019 23:00:00 25,2 21,4 11 6 S 1019,1 10 0,0
20.07.2019 22:00:00 26,0 21,0 13 7 S - 10 -
20.07.2019 21:00:00 26,0 22,0 16 9 S - 10 -
20.07.2019 20:00:00 26,6 20,9 15 8 S 1017,7 10 -
20.07.2019 19:00:00 27,0 22,0 18 10 S - 10 -
20.07.2019 18:00:00 28,0 21,0 18 10 S - 10 -
20.07.2019 17:00:00 28,2 20,5 26 14 SSE 1017,9 10 0,0
20.07.2019 16:00:00 30,0 18,0 22 12 SSE - 10 -
20.07.2019 15:00:00 29,0 17,0 24 13 SSE - 10 -
20.07.2019 14:00:00 29,2 16,8 18 10 S 1018,0 10 -
20.07.2019 13:00:00 29,0 18,0 18 10 S - 10 -
20.07.2019 12:00:00 29,0 16,0 16 9 SSE - 10 -
20.07.2019 11:00:00 27,8 20,6 13 7 S 1017,8 10 0,0
20.07.2019 10:00:00 27,0 21,0 16 9 SSE - 10 -
20.07.2019 09:00:00 26,0 21,0 11 6 SE - 10 -
20.07.2019 08:00:00 24,4 20,6 2 1 - 1017,1 10 -
20.07.2019 07:00:00 21,0 19,0 4 2 NO - 10 -
20.07.2019 06:00:00 21,0 19,0 2 1 - - 10 -
20.07.2019 05:00:00 21,3 18,6 0 0 N 1016,5 10 0,0
20.07.2019 04:00:00 21,0 18,0 4 2 ONO - 10 -
20.07.2019 03:00:00 22,0 19,0 5 3 N - 10 -
20.07.2019 02:00:00 21,9 18,8 5 3 NNO 1016,8 10 -
20.07.2019 01:00:00 22,0 19,0 9 5 NO - 10 -
20.07.2019 00:00:00 23,0 18,0 11 6 NO - 10 -
19.07.2019 23:00:00 23,8 17,3 9 5 NO 1016,8 10 0,0
19.07.2019 22:00:00 24,0 20,0 2 1 - - 10 -
19.07.2019 21:00:00 26,0 19,0 9 5 ESE - 10 -
19.07.2019 20:00:00 26,7 19,7 13 7 E 1015,7 10 -
19.07.2019 19:00:00 27,0 21,0 18 10 SE - 10 -
19.07.2019 18:00:00 28,0 22,0 18 10 SE - 10 -
19.07.2019 17:00:00 28,2 21,1 26 14 SSE 1015,6 10 0,0
19.07.2019 16:00:00 28,0 20,0 21 11 SSE - 10 -
19.07.2019 15:00:00 28,0 20,0 22 12 SSE - 10 -
19.07.2019 14:00:00 28,6 18,5 21 11 SSE 1016,1 10 -
19.07.2019 13:00:00 31,0 15,0 13 7 S - 10 -
19.07.2019 12:00:00 31,0 14,0 11 6 ONO - 10 -
19.07.2019 11:00:00 29,3 16,8 16 9 NO 1016,0 10 0,0
19.07.2019 10:00:00 - - - - - - - -
19.07.2019 09:00:00 25,0 20,0 18 10 N - 10 -
19.07.2019 08:00:00 22,8 19,4 13 7 NNO 1015,7 10 -
19.07.2019 07:00:00 21,0 20,0 11 6 NO - 10 -
19.07.2019 06:00:00 21,0 19,0 13 7 NNO - 10 -
19.07.2019 05:00:00 21,1 19,6 11 6 NO 1015,1 10 0,0
19.07.2019 04:00:00 22,0 20,0 13 7 NO - 10 -
19.07.2019 03:00:00 22,0 20,0 16 9 NO - 10 -
19.07.2019 02:00:00 21,5 19,5 8 4 NO 1015,3 10 -
19.07.2019 01:00:00 23,0 20,0 13 7 NNO - 10 -
19.07.2019 00:00:00 23,0 19,0 9 5 NNO - 10 -
18.07.2019 23:00:00 23,9 19,3 15 8 NNO 1014,8 10 0,0
18.07.2019 22:00:00 26,0 20,0 21 11 N - 10 -
18.07.2019 21:00:00 28,0 17,0 22 12 N - 10 -
18.07.2019 20:00:00 28,7 15,9 26 14 NNO 1012,6 10 -
18.07.2019 19:00:00 31,0 14,0 24 13 NO - 10 -
18.07.2019 18:00:00 32,0 13,0 18 10 NNO - 10 -
18.07.2019 17:00:00 32,7 12,7 21 11 NO 1011,7 10 0,0
18.07.2019 16:00:00 32,0 16,0 13 7 S - 10 -
18.07.2019 15:00:00 31,0 18,0 18 10 S - 10 -
18.07.2019 14:00:00 30,5 16,9 11 6 - 1012,1 10 -
18.07.2019 13:00:00 - - - - - - - -
18.07.2019 12:00:00 30,0 16,0 15 8 N - 10 -
18.07.2019 11:00:00 28,6 16,0 18 10 NNO 1012,9 10 0,0
18.07.2019 10:00:00 26,0 19,0 21 11 NNO - 10 -
18.07.2019 09:00:00 23,0 16,0 15 8 NNO - 10 -
18.07.2019 08:00:00 20,9 15,8 16 9 NNO 1012,6 10 -
18.07.2019 07:00:00 18,0 16,0 11 6 NNO - 10 -
18.07.2019 06:00:00 19,0 17,0 11 6 ONO - 10 -
18.07.2019 05:00:00 18,9 16,9 5 3 ONO 1012,2 - 0,0
18.07.2019 04:00:00 20,0 17,0 11 6 NNO - 10 -
18.07.2019 03:00:00 21,0 18,0 9 5 NO - 10 -
18.07.2019 02:00:00 21,4 17,7 13 7 NNO 1013,0 10 -
18.07.2019 01:00:00 22,0 17,0 13 7 N - 10 -
18.07.2019 00:00:00 23,0 17,0 18 10 NNO - 10 -
17.07.2019 23:00:00 23,8 16,7 21 11 N 1013,3 10 0,0
17.07.2019 22:00:00 25,0 14,0 21 11 N - 10 -
17.07.2019 21:00:00 26,0 15,0 16 9 N - 10 -
17.07.2019 20:00:00 28,1 16,5 13 7 ENE 1012,1 10 -
17.07.2019 19:00:00 29,0 18,0 16 9 ENE - 10 -
17.07.2019 18:00:00 29,0 18,0 18 10 E - 10 -
17.07.2019 17:00:00 30,1 15,9 13 7 SSE 1012,2 10 0,0
17.07.2019 16:00:00 32,0 16,0 16 9 S - 10 -
17.07.2019 15:00:00 30,0 18,0 16 9 S - 10 -
17.07.2019 14:00:00 29,8 17,3 21 11 S 1013,1 10 -
17.07.2019 13:00:00 31,0 13,0 13 7 ONO - 10 -
17.07.2019 12:00:00 30,0 15,0 9 5 ONO - 10 -
17.07.2019 11:00:00 27,8 16,8 9 5 ONO 1014,4 10 0,0
17.07.2019 10:00:00 26,0 17,0 11 6 NO - 10 -
17.07.2019 09:00:00 23,0 17,0 11 6 NNO - 10 -
17.07.2019 08:00:00 19,9 16,1 11 6 NNO 1014,5 10 -
17.07.2019 07:00:00 18,0 16,0 9 5 NNO - 10 -
17.07.2019 06:00:00 18,0 17,0 9 5 NO - 10 -

tt = Temperatura
td = dewpoint
ff = velocità del vento
dd = direzione del vento
ppp = reduced air pressure
vv = visibility
rr = precipitazioni

Stazioni seguenti

WeatherPro
AMSI
MeteoEarth